Location: ?????
(44.4284°N, 135.2222°E)
Time: 07:22:27
(UTC+00:00)

Meteor 2-15 - Pass Details

Date: 19 May 2025
Orbit: 935 x 956 km, 82.5° (Epoch: 15 June)

Event Time Altitude Azimuth Distance (km) Brightness Sun altitude
Rises 13:57:14 0° 351° (N) 3,624 8.9 -24.3°
Reaches altitude 10° 13:59:44 10° 352° (N) 2,672 7.9 -24.4°
Maximum altitude 14:05:52 85° 82° (E) 949 4.3 -24.7°
Enters shadow 14:07:08 59° 164° (SSE) 1,083 4.3 -24.7°
